,,Stat6,,Stat2,,Stat8,,Stat9,,Stat10,,Wind1,,Wind1,
time,status,PA1M_AVG,status,PR1M_SUM,status,RH1M_AVG,status,SR1M_AVG,status,TA1M_AVG,status,W1dAve1m,status,W1sAve1m,
2007-07-21, 00:00:00,VALID,916.971,VALID,0,VALID,100,VALID,-0.0339617,VALID,20.0525,VALID,34,VALID,0.819949,
2007-07-21, 00:01:00,VALID,916.965,VALID,0,VALID,100,VALID,-0.0509425,VALID,20.0527,VALID,31,VALID,0.835243,
2007-07-21, 00:02:00,VALID,916.961,VALID,0,VALID,100,VALID,-0.0679233,VALID,20.0622,VALID,35,VALID,0.747456,
2007-07-21, 00:03:00,VALID,916.966,VALID,0,VALID,100,VALID,-0.0169808,VALID,20.043,VALID,34,VALID,1.02416,
2007-07-21, 00:04:00,VALID,916.953,VALID,0,VALID,100,VALID,-0.0679233,VALID,20.0038,VALID,33,VALID,0.764353,
2007-07-21, 00:05:00,VALID,916.956,VALID,0,VALID,100,VALID,-0.0679233,VALID,20.0205,VALID,31,VALID,0.779948,
2007-07-21, 00:06:00,VALID,916.941,VALID,0,VALID,100,VALID,-0.0509425,VALID,19.9913,VALID,32,VALID,1.07102,
2007-07-21, 00:07:00,VALID,916.927,VALID,0,VALID,100,VALID,-0.101885,VALID,19.9816,VALID,35,VALID,1.0932,
2007-07-21, 00:08:00,VALID,916.908,VALID,0,VALID,100,VALID,-0.0679233,VALID,19.9778,VALID,43,VALID,0.86101,
2007-07-21, 00:09:00,VALID,916.892,VALID,0,VALID,100,VALID,-0.0509425,VALID,20.0138,VALID,16,VALID,0.751953,
2007-07-21, 00:10:00,VALID,916.878,VALID,0,VALID,100,VALID,-0.0339617,VALID,20.0265,VALID,17,VALID,1.05952,
2007-07-21, 00:11:00,VALID,916.841,VALID,0,VALID,100,VALID,-0.0509425,VALID,20.017,VALID,23,VALID,1.0476,
2007-07-21, 00:12:00,VALID,916.802,VALID,0,VALID,100,VALID,-0.0849042,VALID,19.9876,VALID,19,VALID,1.02899,
2007-07-21, 00:13:00,VALID,916.771,VALID,0,VALID,100,VALID,-0.0679233,VALID,19.9873,VALID,13,VALID,0.71439,
2007-07-21, 00:14:00,VALID,916.728,VALID,0,VALID,100,VALID,-0.0509425,VALID,20.014,VALID,10,VALID,0.453125,
2007-07-21, 00:15:00,VALID,916.694,VALID,0,VALID,100,VALID,-0.0679233,VALID,19.9981,VALID,355,VALID,0.27468,
2007-07-21, 00:16:00,VALID,916.674,VALID,0,VALID,100,VALID,-0.0509425,VALID,20.0081,VALID,357,VALID,0.102604,
2007-07-21, 00:17:00,VALID,916.655,VALID,0,VALID,100,VALID,-0.0509425,VALID,20.0041,VALID,357,VALID,0.10174,
2007-07-21, 00:18:00,VALID,916.649,VALID,0,VALID,100,VALID,-0.0509425,VALID,19.9681,VALID,357,VALID,0.176711,
2007-07-21, 00:19:00,VALID,916.631,VALID,0,VALID,100,VALID,-0.0849042,VALID,19.9719,VALID,357,VALID,0.306734,
2007-07-21, 00:20:00,VALID,916.622,VALID,0,VALID,100,VALID,-0.0509425,VALID,19.9943,VALID,357,VALID,0.00345203,
2007-07-21, 00:21:00,VALID,916.629,VALID,0,VALID,100,VALID,-0.101885,VALID,20.0108,VALID,357,VALID,0.0464844,
2007-07-21, 00:22:00,VALID,916.634,VALID,0,VALID,100,VALID,-0.101885,VALID,20.014,VALID,357,VALID,0.0690407,
2007-07-21, 00:23:00,VALID,916.647,VALID,0,VALID,100,VALID,-0.0339617,VALID,19.9816,VALID,357,VALID,0.0625,
2007-07-21, 00:24:00,VALID,916.654,VALID,0,VALID,100,VALID,-0.0679233,VALID,19.9589,VALID,357,VALID,0.0575457,
2007-07-21, 00:25:00,VALID,916.658,VALID,0,VALID,100,VALID,-0.0509425,VALID,19.9556,VALID,357,VALID,0.0558036,
2007-07-21, 00:26:00,VALID,916.669,VALID,0,VALID,100,VALID,-0.0509425,VALID,19.9881,VALID,14,VALID,0.390625,
2007-07-21, 00:27:00,VALID,916.672,VALID,0,VALID,100,VALID,-0.0509425,VALID,19.9981,VALID,36,VALID,0.439406,
2007-07-21, 00:28:00,VALID,916.683,VALID,0,VALID,100,VALID,-0.0339617,VALID,19.9751,VALID,55,VALID,0.5984,
2007-07-21, 00:29:00,VALID,916.692,VALID,0,VALID,100,VALID,-0.0679233,VALID,19.9519,VALID,70,VALID,0.62157,
2007-07-21, 00:30:00,VALID,916.689,VALID,0,VALID,100,VALID,0.0339617,VALID,19.9541,VALID,73,VALID,0.474805,
2007-07-21, 00:31:00,VALID,916.68,VALID,0,VALID,100,VALID,0.0339617,VALID,19.9476,VALID,115,VALID,0.597486,
2007-07-21, 00:32:00,VALID,916.645,VALID,0,VALID,100,VALID,0.0169808,VALID,19.9347,VALID,147,VALID,0.415206,
2007-07-21, 00:33:00,VALID,916.636,VALID,0,VALID,100,VALID,0.0849042,VALID,19.9347,VALID,160,VALID,0.734766,
2007-07-21, 00:34:00,VALID,916.624,VALID,0,VALID,100,VALID,0.0679233,VALID,19.9347,VALID,160,VALID,0.758765,
2007-07-21, 00:35:00,VALID,916.62,VALID,0,VALID,100,VALID,0.0849042,VALID,19.9307,VALID,160,VALID,0.62309,
2007-07-21, 00:36:00,VALID,916.618,VALID,0,VALID,100,VALID,0.0679233,VALID,19.9474,VALID,160,VALID,0.828307,
2007-07-21, 00:37:00,VALID,916.62,VALID,0,VALID,100,VALID,0.0849042,VALID,19.9444,VALID,158,VALID,1.11328,
2007-07-21, 00:38:00,VALID,916.609,VALID,0,VALID,100,VALID,0.0849042,VALID,19.9406,VALID,163,VALID,1.11595,
2007-07-21, 00:39:00,VALID,916.599,VALID,0,VALID,100,VALID,0,VALID,19.9347,VALID,158,VALID,0.89668,
2007-07-21, 00:40:00,VALID,916.582,VALID,0,VALID,100,VALID,0.0339617,VALID,19.9347,VALID,160,VALID,1.16337,
2007-07-21, 00:41:00,VALID,916.574,VALID,0,VALID,100,VALID,0.0339617,VALID,19.9249,VALID,166,VALID,0.897656,
2007-07-21, 00:42:00,VALID,916.566,VALID,0,VALID,100,VALID,0,VALID,19.9217,VALID,174,VALID,0.698509,
2007-07-21, 00:43:00,VALID,916.535,VALID,0,VALID,100,VALID,0.0339617,VALID,19.9119,VALID,175,VALID,1.0251,
2007-07-21, 00:44:00,VALID,916.549,VALID,0,VALID,100,VALID,0,VALID,19.9122,VALID,177,VALID,0.471875,
2007-07-21, 00:45:00,VALID,916.55,VALID,0,VALID,100,VALID,-0.0849042,VALID,19.9135,VALID,177,VALID,0.496094,
2007-07-21, 00:46:00,VALID,916.546,VALID,0,VALID,100,VALID,-0.0849042,VALID,19.9264,VALID,169,VALID,0.411859,
2007-07-21, 00:47:00,VALID,916.541,VALID,0,VALID,100,VALID,-0.0849042,VALID,19.9234,VALID,160,VALID,0.66282,
2007-07-21, 00:48:00,VALID,916.516,VALID,0,VALID,100,VALID,-0.101885,VALID,19.917,VALID,160,VALID,0.673242,
2007-07-21, 00:49:00,VALID,916.495,VALID,0,VALID,100,VALID,-0.135847,VALID,19.9234,VALID,162,VALID,0.617543,
2007-07-21, 00:50:00,VALID,916.479,VALID,0,VALID,100,VALID,-0.0509425,VALID,19.9304,VALID,158,VALID,0.85556,
2007-07-21, 00:51:00,VALID,916.447,VALID,0,VALID,100,VALID,-0.0509425,VALID,19.9232,VALID,160,VALID,0.896802,
2007-07-21, 00:52:00,VALID,916.426,VALID,0,VALID,100,VALID,-0.0849042,VALID,19.9202,VALID,154,VALID,0.923549,
2007-07-21, 00:53:00,VALID,916.402,VALID,0,VALID,100,VALID,-0.0339617,VALID,19.9135,VALID,158,VALID,0.966264,
2007-07-21, 00:54:00,VALID,916.394,VALID,0,VALID,100,VALID,-0.0679233,VALID,19.9102,VALID,155,VALID,0.826923,
2007-07-21, 00:55:00,VALID,916.371,VALID,0,VALID,100,VALID,-0.0339617,VALID,19.9067,VALID,147,VALID,0.735491,
2007-07-21, 00:56:00,VALID,916.373,VALID,0,VALID,100,VALID,-0.0509425,VALID,19.9067,VALID,136,VALID,0.936166,
2007-07-21, 00:57:00,VALID,916.368,VALID,0,VALID,100,VALID,-0.0169808,VALID,19.9002,VALID,129,VALID,0.680664,
2007-07-21, 00:58:00,VALID,916.385,VALID,0,VALID,100,VALID,-0.0509425,VALID,19.8937,VALID,119,VALID,0.346912,
2007-07-21, 00:59:00,VALID,916.395,VALID,0,VALID,100,VALID,-0.0509425,VALID,19.894,VALID,112,VALID,0.880556,
2007-07-21, 01:00:00,VALID,916.413,VALID,0,VALID,100,VALID,-0.0509425,VALID,19.884,VALID,112,VALID,0.798328,
2007-07-21, 01:01:00,VALID,916.413,VALID,0,VALID,100,VALID,-0.0679233,VALID,19.8972,VALID,111,VALID,0.345052,
2007-07-21, 01:02:00,VALID,916.417,VALID,0,VALID,100,VALID,-0.0679233,VALID,19.9037,VALID,110,VALID,0.553267,
2007-07-21, 01:03:00,VALID,916.418,VALID,0,VALID,100,VALID,-0.0339617,VALID,19.894,VALID,102,VALID,0.605564,
2007-07-21, 01:04:00,VALID,916.435,VALID,0,VALID,100,VALID,-0.0679233,VALID,19.8778,VALID,102,VALID,0.559126,
2007-07-21, 01:05:00,VALID,916.449,VALID,0,VALID,100,VALID,-0.0169808,VALID,19.871,VALID,97,VALID,0.692773,
2007-07-21, 01:06:00,VALID,916.455,VALID,0,VALID,100,VALID,-0.0679233,VALID,19.8645,VALID,104,VALID,0.816497,
2007-07-21, 01:07:00,VALID,916.468,VALID,0,VALID,100,VALID,-0.0339617,VALID,19.855,VALID,108,VALID,0.776101,
2007-07-21, 01:08:00,VALID,916.49,VALID,0,VALID,100,VALID,-0.0339617,VALID,19.8418,VALID,112,VALID,0.852095,
2007-07-21, 01:09:00,VALID,916.5,VALID,0,VALID,100,VALID,-0.0509425,VALID,19.8453,VALID,125,VALID,0.847751,
2007-07-21, 01:10:00,VALID,916.494,VALID,0,VALID,100,VALID,-0.0339617,VALID,19.8321,VALID,126,VALID,0.574929,
2007-07-21, 01:11:00,VALID,916.48,VALID,0,VALID,100,VALID,-0.0849042,VALID,19.8323,VALID,131,VALID,0.564276,
2007-07-21, 01:12:00,VALID,916.47,VALID,0,VALID,100,VALID,-0.0849042,VALID,19.8388,VALID,157,VALID,0.716146,
2007-07-21, 01:13:00,VALID,916.434,VALID,0,VALID,100,VALID,-0.0849042,VALID,19.8518,VALID,167,VALID,0.967076,
2007-07-21, 01:14:00,VALID,916.43,VALID,0,VALID,100,VALID,-0.0509425,VALID,19.8486,VALID,158,VALID,0.622461,
2007-07-21, 01:15:00,VALID,916.436,VALID,0,VALID,100,VALID,-0.101885,VALID,19.8588,VALID,170,VALID,0.68192,
2007-07-21, 01:16:00,VALID,916.444,VALID,0,VALID,100,VALID,-0.0679233,VALID,19.8416,VALID,148,VALID,0.503534,
2007-07-21, 01:17:00,VALID,916.45,VALID,0,VALID,100,VALID,-0.0849042,VALID,19.8386,VALID,165,VALID,0.939732,
2007-07-21, 01:18:00,VALID,916.455,VALID,0,VALID,100,VALID,-0.0849042,VALID,19.8456,VALID,142,VALID,0.657158,
2007-07-21, 01:19:00,VALID,916.471,VALID,0,VALID,100,VALID,-0.101885,VALID,19.8553,VALID,142,VALID,0.49295,
2007-07-21, 01:20:00,VALID,916.464,VALID,0,VALID,100,VALID,-0.0679233,VALID,19.8453,VALID,133,VALID,0.270198,
2007-07-21, 01:21:00,VALID,916.462,VALID,0,VALID,100,VALID,-0.0849042,VALID,19.8486,VALID,133,VALID,0.0483285,
2007-07-21, 01:22:00,VALID,916.454,VALID,0,VALID,100,VALID,-0.0679233,VALID,19.8518,VALID,141,VALID,0.240327,
2007-07-21, 01:23:00,VALID,916.458,VALID,0,VALID,100,VALID,-0.101885,VALID,19.8548,VALID,151,VALID,0.108008,
2007-07-21, 01:24:00,VALID,916.467,VALID,0,VALID,100,VALID,-0.0849042,VALID,19.855,VALID,151,VALID,0.0133384,
2007-07-21, 01:25:00,VALID,916.46,VALID,0,VALID,100,VALID,-0.0849042,VALID,19.855,VALID,151,VALID,0.272485,
2007-07-21, 01:26:00,VALID,916.447,VALID,0,VALID,100,VALID,-0.101885,VALID,19.8583,VALID,151,VALID,0.37593,
2007-07-21, 01:27:00,VALID,916.414,VALID,0,VALID,100,VALID,-0.0849042,VALID,19.8481,VALID,151,VALID,0.375545,
2007-07-21, 01:28:00,VALID,916.398,VALID,0,VALID,100,VALID,-0.0679233,VALID,19.868,VALID,151,VALID,0.172602,
2007-07-21, 01:29:00,VALID,916.405,VALID,0,VALID,100,VALID,-0.101885,VALID,19.8648,VALID,151,VALID,0.322129,
2007-07-21, 01:30:00,VALID,916.4,VALID,0,VALID,100,VALID,-0.0849042,VALID,19.858,VALID,151,VALID,0.351389,
2007-07-21, 01:31:00,VALID,916.433,VALID,0,VALID,100,VALID,-0.0339617,VALID,19.8613,VALID,150,VALID,0.509993,
2007-07-21, 01:32:00,VALID,916.447,VALID,0,VALID,100,VALID,-0.0849042,VALID,19.8548,VALID,147,VALID,0.488021,
2007-07-21, 01:33:00,VALID,916.45,VALID,0,VALID,100,VALID,-0.0679233,VALID,19.8483,VALID,140,VALID,0.569586,
2007-07-21, 01:34:00,VALID,916.45,VALID,0,VALID,100,VALID,-0.0849042,VALID,19.8418,VALID,109,VALID,0.518056,
2007-07-21, 01:35:00,VALID,916.457,VALID,0,VALID,100,VALID,-0.101885,VALID,19.8456,VALID,109,VALID,0.551491,
2007-07-21, 01:36:00,VALID,916.441,VALID,0,VALID,100,VALID,-0.0679233,VALID,19.8451,VALID,109,VALID,0.500186,
2007-07-21, 01:37:00,VALID,916.428,VALID,0,VALID,100,VALID,-0.0679233,VALID,19.8648,VALID,109,VALID,0.329427,
2007-07-21, 01:38:00,VALID,916.425,VALID,0,VALID,100,VALID,-0.0849042,VALID,19.8748,VALID,108,VALID,0.412574,
2007-07-21, 01:39:00,VALID,916.428,VALID,0,VALID,100,VALID,-0.0509425,VALID,19.8713,VALID,108,VALID,0.47603,
2007-07-21, 01:40:00,VALID,916.429,VALID,0,VALID,100,VALID,-0.0849042,VALID,19.8713,VALID,118,VALID,0.776811,
2007-07-21, 01:41:00,VALID,916.422,VALID,0,VALID,100,VALID,-0.101885,VALID,19.8678,VALID,135,VALID,1.07388,
2007-07-21, 01:42:00,VALID,916.43,VALID,0,VALID,100,VALID,-0.0849042,VALID,19.8675,VALID,143,VALID,0.954427,
2007-07-21, 01:43:00,VALID,916.427,VALID,0,VALID,100,VALID,-0.0849042,VALID,19.881,VALID,155,VALID,0.744665,
2007-07-21, 01:44:00,VALID,916.426,VALID,0,VALID,100,VALID,-0.0339617,VALID,19.8738,VALID,154,VALID,0.853516,
2007-07-21, 01:45:00,VALID,916.418,VALID,0,VALID,100,VALID,-0.101885,VALID,19.8778,VALID,169,VALID,0.678416,
2007-07-21, 01:46:00,VALID,916.421,VALID,0,VALID,100,VALID,-0.0849042,VALID,19.8808,VALID,169,VALID,0.656808,
2007-07-21, 01:47:00,VALID,916.417,VALID,0,VALID,100,VALID,-0.101885,VALID,19.8872,VALID,162,VALID,0.689453,
2007-07-21, 01:48:00,VALID,916.404,VALID,0,VALID,100,VALID,-0.0849042,VALID,19.8875,VALID,149,VALID,0.483817,
2007-07-21, 01:49:00,VALID,916.39,VALID,0,VALID,100,VALID,-0.101885,VALID,19.8808,VALID,144,VALID,0.18423,
2007-07-21, 01:50:00,VALID,916.379,VALID,0,VALID,100,VALID,-0.0509425,VALID,19.884,VALID,145,VALID,0.271949,
2007-07-21, 01:51:00,VALID,916.367,VALID,0,VALID,100,VALID,-0.0849042,VALID,19.881,VALID,141,VALID,0.661966,
2007-07-21, 01:52:00,VALID,916.357,VALID,0,VALID,100,VALID,-0.0849042,VALID,19.8743,VALID,164,VALID,0.386719,
2007-07-21, 01:53:00,VALID,916.349,VALID,0,VALID,100,VALID,-0.0679233,VALID,19.8872,VALID,160,VALID,0.596839,
2007-07-21, 01:54:00,VALID,916.346,VALID,0,VALID,100,VALID,0,VALID,19.877,VALID,138,VALID,0.558239,
2007-07-21, 01:55:00,VALID,916.335,VALID,0,VALID,100,VALID,-0.0509425,VALID,19.874,VALID,130,VALID,0.658482,
2007-07-21, 01:56:00,VALID,916.321,VALID,0,VALID,100,VALID,-0.0849042,VALID,19.8808,VALID,147,VALID,0.782924,
2007-07-21, 01:57:00,VALID,916.301,VALID,0,VALID,100,VALID,-0.0679233,VALID,19.871,VALID,152,VALID,0.513626,
2007-07-21, 01:58:00,VALID,916.281,VALID,0,VALID,100,VALID,-0.0169808,VALID,19.871,VALID,158,VALID,0.362179,
2007-07-21, 01:59:00,VALID,916.258,VALID,0,VALID,100,VALID,-0.0339617,VALID,19.8613,VALID,142,VALID,0.369348,
2007-07-21, 02:00:00,VALID,916.226,VALID,0,VALID,100,VALID,-0.0509425,VALID,19.8481,VALID,142,VALID,0.0580611,
2007-07-21, 02:01:00,VALID,916.197,VALID,0,VALID,100,VALID,-0.0339617,VALID,19.8483,VALID,142,VALID,0.295201,
2007-07-21, 02:02:00,VALID,916.158,VALID,0,VALID,100,VALID,-0.0679233,VALID,19.8448,VALID,142,VALID,0.0763081,
2007-07-21, 02:03:00,VALID,916.118,VALID,0,VALID,100,VALID,-0.0679233,VALID,19.8446,VALID,142,VALID,0,
2007-07-21, 02:04:00,VALID,916.076,VALID,0,VALID,100,VALID,-0.0339617,VALID,19.8413,VALID,142,VALID,0.0125762,
2007-07-21, 02:05:00,VALID,916.04,VALID,0,VALID,100,VALID,-0.0169808,VALID,19.8538,VALID,142,VALID,0.196429,
2007-07-21, 02:06:00,VALID,916.003,VALID,0,VALID,100,VALID,-0.0339617,VALID,19.864,VALID,142,VALID,0.297385,
2007-07-21, 02:07:00,VALID,915.969,VALID,0,VALID,100,VALID,-0.0509425,VALID,19.8708,VALID,142,VALID,0.167492,
2007-07-21, 02:08:00,VALID,915.95,VALID,0,VALID,100,VALID,-0.0339617,VALID,19.8775,VALID,142,VALID,0.0201672,
2007-07-21, 02:09:00,VALID,915.939,VALID,0,VALID,100,VALID,-0.0679233,VALID,19.8708,VALID,142,VALID,0,
2007-07-21, 02:10:00,VALID,915.948,VALID,0,VALID,100,VALID,-0.0509425,VALID,19.8743,VALID,142,VALID,0,
2007-07-21, 02:11:00,VALID,915.957,VALID,0,VALID,100,VALID,-0.0679233,VALID,19.877,VALID,142,VALID,0.0536222,
2007-07-21, 02:12:00,VALID,915.961,VALID,0,VALID,100,VALID,-0.0169808,VALID,19.887,VALID,142,VALID,0,
2007-07-21, 02:13:00,VALID,915.964,VALID,0,VALID,100,VALID,-0.0849042,VALID,19.903,VALID,142,VALID,0.047061,
2007-07-21, 02:14:00,VALID,915.971,VALID,0,VALID,100,VALID,-0.0509425,VALID,19.8733,VALID,142,VALID,0.187872,
2007-07-21, 02:15:00,VALID,915.994,VALID,0,VALID,100,VALID,0,VALID,19.8965,VALID,73,VALID,0.304287,
2007-07-21, 02:16:00,VALID,916.01,VALID,0,VALID,100,VALID,-0.0169808,VALID,19.9062,VALID,22,VALID,0.808503,
2007-07-21, 02:17:00,VALID,916.027,VALID,0,VALID,100,VALID,0,VALID,19.907,VALID,2,VALID,0.531613,
2007-07-21, 02:18:00,VALID,916.024,VALID,0,VALID,100,VALID,-0.0169808,VALID,19.8803,VALID,15,VALID,0.582919,
2007-07-21, 02:19:00,VALID,916.007,VALID,0,VALID,100,VALID,0,VALID,19.864,VALID,18,VALID,0.491461,
2007-07-21, 02:20:00,VALID,915.991,VALID,0,VALID,100,VALID,0,VALID,19.851,VALID,18,VALID,0.114844,
2007-07-21, 02:21:00,VALID,915.973,VALID,0,VALID,100,VALID,0,VALID,19.8346,VALID,18,VALID,0,
2007-07-21, 02:22:00,VALID,915.959,VALID,0,VALID,100,VALID,-0.0169808,VALID,19.8278,VALID,18,VALID,0,
2007-07-21, 02:23:00,VALID,915.941,VALID,0,VALID,100,VALID,0.0169808,VALID,19.8341,VALID,18,VALID,0,
2007-07-21, 02:24:00,VALID,915.923,VALID,0,VALID,100,VALID,0,VALID,19.8376,VALID,18,VALID,0,
2007-07-21, 02:25:00,VALID,915.905,VALID,0,VALID,100,VALID,0,VALID,19.8376,VALID,18,VALID,0,
2007-07-21, 02:26:00,VALID,915.894,VALID,0,VALID,100,VALID,-0.0339617,VALID,19.8446,VALID,18,VALID,0.00719572,
2007-07-21, 02:27:00,VALID,915.9,VALID,0,VALID,100,VALID,-0.0169808,VALID,19.8543,VALID,82,VALID,0.162733,
2007-07-21, 02:28:00,VALID,915.883,VALID,0,VALID,100,VALID,-0.0339617,VALID,19.8411,VALID,156,VALID,0.27474,
2007-07-21, 02:29:00,VALID,915.875,VALID,0,VALID,100,VALID,-0.0169808,VALID,19.8316,VALID,143,VALID,0.467361,
2007-07-21, 02:30:00,VALID,915.856,VALID,0,VALID,100,VALID,-0.118866,VALID,19.8069,VALID,142,VALID,0.0982921,
2007-07-21, 02:31:00,VALID,915.852,VALID,0,VALID,100,VALID,-0.118866,VALID,19.7936,VALID,142,VALID,0.34375,
2007-07-21, 02:32:00,VALID,915.854,VALID,0,VALID,100,VALID,-0.152827,VALID,19.7981,VALID,142,VALID,0.382086,
2007-07-21, 02:33:00,VALID,915.86,VALID,0,VALID,100,VALID,-0.101885,VALID,19.7914,VALID,142,VALID,0.286272,
2007-07-21, 02:34:00,VALID,915.879,VALID,0,VALID,100,VALID,-0.118866,VALID,19.7849,VALID,142,VALID,0.457209,
2007-07-21, 02:35:00,VALID,915.889,VALID,0,VALID,100,VALID,-0.118866,VALID,19.7877,VALID,139,VALID,0.310697,
2007-07-21, 02:36:00,VALID,915.886,VALID,0,VALID,100,VALID,-0.135847,VALID,19.7939,VALID,113,VALID,0.467152,
2007-07-21, 02:37:00,VALID,915.897,VALID,0,VALID,100,VALID,-0.135847,VALID,19.7844,VALID,106,VALID,0.575,
2007-07-21, 02:38:00,VALID,915.908,VALID,0,VALID,100,VALID,-0.135847,VALID,19.7849,VALID,91,VALID,0.692708,
2007-07-21, 02:39:00,VALID,915.93,VALID,0,VALID,100,VALID,-0.118866,VALID,19.7809,VALID,63,VALID,0.852896,
2007-07-21, 02:40:00,VALID,915.944,VALID,0,VALID,100,VALID,-0.118866,VALID,19.7749,VALID,63,VALID,0.806362,
2007-07-21, 02:41:00,VALID,915.953,VALID,0,VALID,100,VALID,-0.169808,VALID,19.7649,VALID,65,VALID,0.874653,
2007-07-21, 02:42:00,VALID,915.958,VALID,0,VALID,100,VALID,-0.118866,VALID,19.7622,VALID,72,VALID,0.884301,
2007-07-21, 02:43:00,VALID,915.967,VALID,0,VALID,100,VALID,-0.152827,VALID,19.759,VALID,71,VALID,0.499822,
2007-07-21, 02:44:00,VALID,915.984,VALID,0,VALID,100,VALID,-0.101885,VALID,19.7617,VALID,74,VALID,0.552641,
2007-07-21, 02:45:00,VALID,916.007,VALID,0,VALID,100,VALID,-0.0169808,VALID,19.751,VALID,69,VALID,0.584201,
2007-07-21, 02:46:00,VALID,916.027,VALID,0,VALID,100,VALID,-0.0169808,VALID,19.7542,VALID,46,VALID,0.705664,
2007-07-21, 02:47:00,VALID,916.054,VALID,0,VALID,100,VALID,-0.0509425,VALID,19.7642,VALID,49,VALID,0.620094,
2007-07-21, 02:48:00,VALID,916.072,VALID,0,VALID,100,VALID,-0.0339617,VALID,19.7367,VALID,49,VALID,0.576853,
2007-07-21, 02:49:00,VALID,916.105,VALID,0,VALID,100,VALID,-0.0339617,VALID,19.7437,VALID,44,VALID,0.660326,
2007-07-21, 02:50:00,VALID,916.135,VALID,0,VALID,100,VALID,-0.0169808,VALID,19.7537,VALID,32,VALID,0.817454,
2007-07-21, 02:51:00,VALID,916.144,VALID,0,VALID,100,VALID,-0.0339617,VALID,19.728,VALID,18,VALID,0.794671,
2007-07-21, 02:52:00,VALID,916.147,VALID,0,VALID,100,VALID,-0.0339617,VALID,19.7118,VALID,9,VALID,0.827009,
2007-07-21, 02:53:00,VALID,916.138,VALID,0,VALID,100,VALID,-0.0339617,VALID,19.7153,VALID,2,VALID,0.772347,
2007-07-21, 02:54:00,VALID,916.123,VALID,0,VALID,100,VALID,-0.0679233,VALID,19.7018,VALID,356,VALID,0.637429,
2007-07-21, 02:55:00,VALID,916.121,VALID,0,VALID,100,VALID,-0.0169808,VALID,19.7053,VALID,2,VALID,0.593205,
2007-07-21, 02:56:00,VALID,916.115,VALID,0,VALID,100,VALID,-0.0339617,VALID,19.709,VALID,17,VALID,0.644245,
2007-07-21, 02:57:00,VALID,916.105,VALID,0,VALID,100,VALID,0,VALID,19.6923,VALID,20,VALID,0.141387,
2007-07-21, 02:58:00,VALID,916.097,VALID,0,VALID,100,VALID,-0.0169808,VALID,19.7048,VALID,20,VALID,0.0524009,
2007-07-21, 02:59:00,VALID,916.087,VALID,0,VALID,100,VALID,-0.0169808,VALID,19.6951,VALID,20,VALID,0.140625,
2007-07-21, 03:00:00,VALID,916.091,VALID,0,VALID,100,VALID,0,VALID,19.6923,VALID,20,VALID,0.342076,
2007-07-21, 03:01:00,VALID,916.091,VALID,0,VALID,100,VALID,-0.0849042,VALID,19.6724,VALID,20,VALID,0.437318,
2007-07-21, 03:02:00,VALID,916.084,VALID,0,VALID,100,VALID,0,VALID,19.6666,VALID,20,VALID,0.36756,
2007-07-21, 03:03:00,VALID,916.077,VALID,0,VALID,100,VALID,-0.0509425,VALID,19.6701,VALID,20,VALID,0.0310724,
2007-07-21, 03:04:00,VALID,916.088,VALID,0,VALID,100,VALID,0,VALID,19.6496,VALID,20,VALID,0,
2007-07-21, 03:05:00,VALID,916.087,VALID,0,VALID,100,VALID,-0.0169808,VALID,19.6594,VALID,20,VALID,0,
2007-07-21, 03:06:00,VALID,916.108,VALID,0,VALID,100,VALID,-0.0339617,VALID,19.6494,VALID,20,VALID,0,
2007-07-21, 03:07:00,VALID,916.114,VALID,0,VALID,100,VALID,0,VALID,19.6694,VALID,20,VALID,0,
2007-07-21, 03:08:00,VALID,916.13,VALID,0,VALID,100,VALID,-0.0169808,VALID,19.6788,VALID,20,VALID,0.0648619,
2007-07-21, 03:09:00,VALID,916.148,VALID,0,VALID,100,VALID,0,VALID,19.6751,VALID,20,VALID,0.390447,
2007-07-21, 03:10:00,VALID,916.165,VALID,0,VALID,100,VALID,0,VALID,19.6881,VALID,20,VALID,0.295987,
2007-07-21, 03:11:00,VALID,916.166,VALID,0,VALID,100,VALID,0,VALID,19.7138,VALID,20,VALID,0.0165334,
2007-07-21, 03:12:00,VALID,916.164,VALID,0,VALID,100,VALID,0.0169808,VALID,19.7205,VALID,20,VALID,0,
2007-07-21, 03:13:00,VALID,916.153,VALID,0,VALID,100,VALID,-0.0169808,VALID,19.7273,VALID,20,VALID,0,
2007-07-21, 03:14:00,VALID,916.133,VALID,0,VALID,100,VALID,-0.0169808,VALID,19.7342,VALID,20,VALID,0.181641,
2007-07-21, 03:15:00,VALID,916.094,VALID,0,VALID,100,VALID,-0.118866,VALID,19.7125,VALID,20,VALID,0.508743,
2007-07-21, 03:16:00,VALID,916.075,VALID,0,VALID,100,VALID,-0.118866,VALID,19.6831,VALID,138,VALID,0.842076,
2007-07-21, 03:17:00,VALID,916.072,VALID,0,VALID,100,VALID,-0.101885,VALID,19.6639,VALID,181,VALID,0.826079,
2007-07-21, 03:18:00,VALID,916.081,VALID,0,VALID,100,VALID,-0.152827,VALID,19.6546,VALID,159,VALID,0.47247,
2007-07-21, 03:19:00,VALID,916.084,VALID,0,VALID,100,VALID,-0.101885,VALID,19.6441,VALID,166,VALID,0.414825,
2007-07-21, 03:20:00,VALID,916.08,VALID,0,VALID,100,VALID,-0.118866,VALID,19.6446,VALID,166,VALID,0.345846,
2007-07-21, 03:21:00,VALID,916.084,VALID,0,VALID,100,VALID,-0.118866,VALID,19.6312,VALID,165,VALID,0.118862,
2007-07-21, 03:22:00,VALID,916.077,VALID,0,VALID,100,VALID,-0.118866,VALID,19.6446,VALID,165,VALID,0.00545058,
2007-07-21, 03:23:00,VALID,916.087,VALID,0,VALID,100,VALID,-0.101885,VALID,19.6352,VALID,165,VALID,0,
2007-07-21, 03:24:00,VALID,916.069,VALID,0,VALID,100,VALID,-0.135847,VALID,19.6382,VALID,165,VALID,0,
2007-07-21, 03:25:00,VALID,916.055,VALID,0,VALID,100,VALID,-0.0509425,VALID,19.6402,VALID,165,VALID,0.0345982,
2007-07-21, 03:26:00,VALID,916.037,VALID,0,VALID,100,VALID,0,VALID,19.6394,VALID,165,VALID,0.234375,
2007-07-21, 03:27:00,VALID,916.035,VALID,0,VALID,100,VALID,-0.0169808,VALID,19.6427,VALID,165,VALID,0.117006,
2007-07-21, 03:28:00,VALID,916.023,VALID,0,VALID,100,VALID,0,VALID,19.6364,VALID,165,VALID,0.0483285,
2007-07-21, 03:29:00,VALID,916.017,VALID,0,VALID,100,VALID,-0.0339617,VALID,19.6364,VALID,153,VALID,0.385719,
2007-07-21, 03:30:00,VALID,916.003,VALID,0,VALID,100,VALID,0,VALID,19.6077,VALID,134,VALID,0.674219,
2007-07-21, 03:31:00,VALID,915.978,VALID,0,VALID,100,VALID,-0.0169808,VALID,19.6072,VALID,135,VALID,0.841442,
2007-07-21, 03:32:00,VALID,915.952,VALID,0,VALID,100,VALID,-0.0169808,VALID,19.6234,VALID,135,VALID,0.710938,
2007-07-21, 03:33:00,VALID,915.936,VALID,0,VALID,100,VALID,0,VALID,19.6364,VALID,135,VALID,0.562322,
2007-07-21, 03:34:00,VALID,915.923,VALID,0,VALID,100,VALID,-0.0339617,VALID,19.6394,VALID,135,VALID,0.343555,
2007-07-21, 03:35:00,VALID,915.91,VALID,0,VALID,100,VALID,0,VALID,19.6491,VALID,135,VALID,0.00576637,
2007-07-21, 03:36:00,VALID,915.881,VALID,0,VALID,100,VALID,-0.0169808,VALID,19.6526,VALID,135,VALID,0,
2007-07-21, 03:37:00,VALID,915.872,VALID,0,VALID,100,VALID,-0.0169808,VALID,19.6464,VALID,135,VALID,0.0369141,
2007-07-21, 03:38:00,VALID,915.872,VALID,0,VALID,100,VALID,-0.0339617,VALID,19.6397,VALID,150,VALID,0.506324,
2007-07-21, 03:39:00,VALID,915.873,VALID,0,VALID,100,VALID,-0.0169808,VALID,19.6137,VALID,154,VALID,0.420272,
2007-07-21, 03:40:00,VALID,915.877,VALID,0,VALID,100,VALID,-0.0339617,VALID,19.5977,VALID,154,VALID,0.224382,